Time,TemperatureF,DewpointF,PressureIn,WindDirection,WindDirectionDegrees,WindSpeedMPH,WindSpeedGustMPH,Humidity,HourlyPrecipIn,Conditions,Clouds,dailyrainin,SoftwareType,DateUTC
2013-04-01 06:33:00,18.0,-99.9,-100.00,NW,315,2.0,6.0,-999,0.00,,,0.00,,2013-04-01 11:33:00,
2013-04-01 06:43:00,18.0,-99.9,-100.00,NW,315,2.0,6.0,-999,0.00,,,0.00,,2013-04-01 11:43:00,
2013-04-01 06:53:00,18.0,-99.9,-100.00,NNW,338,2.0,6.0,-999,0.00,,,0.00,,2013-04-01 11:53:00,
2013-04-01 07:03:00,18.0,-99.9,-100.00,NW,315,3.0,7.0,-999,0.00,,,0.00,,2013-04-01 12:03:00,
2013-04-01 07:12:00,18.0,-99.9,-100.00,NW,315,3.0,7.0,-999,0.00,,,0.00,,2013-04-01 12:12:00,
2013-04-01 07:23:00,18.0,-99.9,-100.00,NW,315,2.0,7.0,-999,0.00,,,0.00,,2013-04-01 12:23:00,
2013-04-01 07:33:00,18.0,-99.9,-100.00,NW,315,2.0,6.0,-999,0.00,,,0.00,,2013-04-01 12:33:00,
2013-04-01 07:43:00,18.0,-99.9,-100.00,NW,315,2.0,6.0,-999,0.00,,,0.00,,2013-04-01 12:43:00,
2013-04-01 07:53:00,19.0,-99.9,-100.00,NW,315,6.0,10.0,-999,0.00,,,0.00,,2013-04-01 12:53:00,
2013-04-01 08:03:00,19.0,-99.9,-100.00,NNW,338,3.0,9.0,-999,0.00,,,0.00,,2013-04-01 13:03:00,
2013-04-01 08:13:00,19.0,-99.9,-100.00,NNW,338,3.0,9.0,-999,0.00,,,0.00,,2013-04-01 13:13:00,
2013-04-01 08:23:00,20.0,-99.9,-100.00,NNW,338,2.0,6.0,-999,0.00,,,0.00,,2013-04-01 13:23:00,
2013-04-01 08:33:00,20.0,-99.9,-100.00,North,0,2.0,7.0,-999,0.00,,,0.00,,2013-04-01 13:33:00,
2013-04-01 08:43:00,20.0,-99.9,-100.00,North,0,2.0,7.0,-999,0.00,,,0.00,,2013-04-01 13:43:00,
2013-04-01 08:53:00,21.0,-99.9,-100.00,NNW,338,2.0,12.0,-999,0.00,,,0.00,,2013-04-01 13:53:00,
2013-04-01 09:04:00,22.0,-99.9,-100.00,North,0,1.0,9.0,-999,0.00,,,0.00,,2013-04-01 14:04:00,
2013-04-01 09:13:00,22.0,-99.9,-100.00,North,0,1.0,9.0,-999,0.00,,,0.00,,2013-04-01 14:13:00,
2013-04-01 09:23:00,22.0,-99.9,-100.00,NW,315,2.0,12.0,-999,0.00,,,0.00,,2013-04-01 14:23:00,
2013-04-01 09:33:00,23.0,-99.9,-100.00,NW,315,2.0,12.0,-999,0.00,,,0.00,,2013-04-01 14:33:00,
2013-04-01 09:43:00,23.0,-99.9,-100.00,NW,315,2.0,12.0,-999,0.00,,,0.00,,2013-04-01 14:43:00,
2013-04-01 09:53:00,22.0,-99.9,-100.00,NW,315,3.0,10.0,-999,0.00,,,0.00,,2013-04-01 14:53:00,
2013-04-01 10:03:00,22.0,-99.9,-100.00,NW,315,8.0,12.0,-999,0.00,,,0.00,,2013-04-01 15:03:00,
2013-04-01 10:13:00,22.0,-99.9,-100.00,NW,315,8.0,12.0,-999,0.00,,,0.00,,2013-04-01 15:13:00,
2013-04-01 10:23:00,26.0,-99.9,-100.00,NNW,338,5.0,8.0,-999,0.00,,,0.00,,2013-04-01 15:23:00,
2013-04-01 10:34:00,25.0,-99.9,-100.00,NNW,338,2.0,10.0,-999,0.00,,,0.00,,2013-04-01 15:34:00,
2013-04-01 10:44:00,25.0,-99.9,-100.00,NNW,338,2.0,10.0,-999,0.00,,,0.00,,2013-04-01 15:44:00,
2013-04-01 10:54:00,25.0,-99.9,-100.00,WNW,293,5.0,13.0,-999,0.00,,,0.00,,2013-04-01 15:54:00,
2013-04-01 11:03:00,26.0,-99.9,-100.00,NNW,338,5.0,12.0,-999,0.00,,,0.00,,2013-04-01 16:03:00,
2013-04-01 11:13:00,26.0,-99.9,-100.00,NNW,338,5.0,12.0,-999,0.00,,,0.00,,2013-04-01 16:13:00,
2013-04-01 11:24:00,25.0,-99.9,-100.00,NW,315,7.0,15.0,-999,0.00,,,0.00,,2013-04-01 16:24:00,
2013-04-01 11:34:00,24.0,-99.9,-100.00,NNW,338,3.0,20.0,-999,0.00,,,0.00,,2013-04-01 16:34:00,
2013-04-01 11:43:00,24.0,-99.9,-100.00,NNW,338,3.0,20.0,-999,0.00,,,0.00,,2013-04-01 16:43:00,
2013-04-01 11:53:00,26.0,-99.9,-100.00,WNW,293,5.0,15.0,-999,0.00,,,0.00,,2013-04-01 16:53:00,
2013-04-01 12:03:00,26.0,-99.9,-100.00,NNW,338,2.0,12.0,-999,0.00,,,0.00,,2013-04-01 17:03:00,
2013-04-01 12:13:00,26.0,-99.9,-100.00,NNW,338,2.0,12.0,-999,0.00,,,0.00,,2013-04-01 17:13:00,
2013-04-01 12:23:00,26.0,-99.9,-100.00,NW,315,7.0,12.0,-999,0.00,,,0.00,,2013-04-01 17:23:00,
2013-04-01 12:32:00,26.0,-99.9,-100.00,NW,315,7.0,12.0,-999,0.00,,,0.00,,2013-04-01 17:32:00,
2013-04-01 12:42:00,26.0,-99.9,-100.00,NW,315,7.0,12.0,-999,0.00,,,0.00,,2013-04-01 17:42:00,
2013-04-01 12:54:00,30.0,-99.9,-100.00,NW,315,5.0,13.0,-999,0.00,,,0.00,,2013-04-01 17:54:00,
2013-04-01 13:03:00,26.0,-99.9,-100.00,NNW,338,5.0,15.0,-999,0.00,,,0.00,,2013-04-01 18:03:00,
2013-04-01 13:13:00,26.0,-99.9,-100.00,NNW,338,5.0,15.0,-999,0.00,,,0.00,,2013-04-01 18:13:00,
2013-04-01 13:22:00,27.0,-99.9,-100.00,NW,315,6.0,14.0,-999,0.00,,,0.00,,2013-04-01 18:22:00,
2013-04-01 13:33:00,28.0,-99.9,-100.00,NNW,338,6.0,16.0,-999,0.00,,,0.00,,2013-04-01 18:33:00,
2013-04-01 13:43:00,28.0,-99.9,-100.00,NNW,338,6.0,16.0,-999,0.00,,,0.00,,2013-04-01 18:43:00,
2013-04-01 13:54:00,28.0,-99.9,-100.00,NNW,338,5.0,13.0,-999,0.00,,,0.00,,2013-04-01 18:54:00,
2013-04-01 14:04:00,27.0,-99.9,-100.00,NNW,338,5.0,14.0,-999,0.00,,,0.00,,2013-04-01 19:04:00,
2013-04-01 14:13:00,27.0,-99.9,-100.00,NNW,338,5.0,14.0,-999,0.00,,,0.00,,2013-04-01 19:13:00,
2013-04-01 14:23:00,30.0,-99.9,-100.00,NNW,338,8.0,16.0,-999,0.00,,,0.00,,2013-04-01 19:23:00,
2013-04-01 14:33:00,28.0,-99.9,-100.00,NNW,338,3.0,17.0,-999,0.00,,,0.00,,2013-04-01 19:33:00,
2013-04-01 14:43:00,28.0,-99.9,-100.00,NNW,338,3.0,17.0,-999,0.00,,,0.00,,2013-04-01 19:43:00,
2013-04-01 14:53:00,29.0,-99.9,-100.00,NNW,338,5.0,13.0,-999,0.00,,,0.00,,2013-04-01 19:53:00,
2013-04-01 15:03:00,30.0,-99.9,-100.00,NW,315,9.0,16.0,-999,0.00,,,0.00,,2013-04-01 20:03:00,
2013-04-01 15:13:00,30.0,-99.9,-100.00,NW,315,9.0,16.0,-999,0.00,,,0.00,,2013-04-01 20:13:00,
2013-04-01 15:23:00,28.0,-99.9,-100.00,NNW,338,5.0,15.0,-999,0.00,,,0.00,,2013-04-01 20:23:00,
2013-04-01 15:33:00,30.0,-99.9,-100.00,NNW,338,5.0,12.0,-999,0.00,,,0.00,,2013-04-01 20:33:00,
2013-04-01 15:43:00,30.0,-99.9,-100.00,NNW,338,5.0,12.0,-999,0.00,,,0.00,,2013-04-01 20:43:00,
2013-04-01 15:53:00,30.0,-99.9,-100.00,NNW,338,3.0,15.0,-999,0.00,,,0.00,,2013-04-01 20:53:00,
2013-04-01 16:03:00,31.0,-99.9,-100.00,NNW,338,3.0,10.0,-999,0.00,,,0.00,,2013-04-01 21:03:00,
2013-04-01 16:12:00,31.0,-99.9,-100.00,NNW,338,3.0,10.0,-999,0.00,,,0.00,,2013-04-01 21:12:00,
2013-04-01 16:23:00,29.0,-99.9,-100.00,North,0,5.0,12.0,-999,0.00,,,0.00,,2013-04-01 21:23:00,
2013-04-01 16:33:00,29.0,-99.9,-100.00,NW,315,2.0,12.0,-999,0.00,,,0.00,,2013-04-01 21:33:00,
2013-04-01 16:44:00,29.0,-99.9,-100.00,NW,315,2.0,12.0,-999,0.00,,,0.00,,2013-04-01 21:44:00,
2013-04-01 16:53:00,27.0,-99.9,-100.00,NW,315,5.0,12.0,-999,0.00,,,0.00,,2013-04-01 21:53:00,
2013-04-01 17:03:00,27.0,-99.9,-100.00,NNW,338,2.0,15.0,-999,0.00,,,0.00,,2013-04-01 22:03:00,
2013-04-01 17:13:00,27.0,-99.9,-100.00,NNW,338,2.0,15.0,-999,0.00,,,0.00,,2013-04-01 22:13:00,
2013-04-01 17:23:00,27.0,-99.9,-100.00,NW,315,7.0,15.0,-999,0.00,,,0.00,,2013-04-01 22:23:00,
2013-04-01 17:33:00,27.0,-99.9,-100.00,NNW,338,3.0,15.0,-999,0.00,,,0.00,,2013-04-01 22:33:00,
2013-04-01 17:44:00,27.0,-99.9,-100.00,NNW,338,3.0,15.0,-999,0.00,,,0.00,,2013-04-01 22:44:00,
2013-04-01 17:53:00,27.0,-99.9,-100.00,NNW,338,2.0,15.0,-999,0.00,,,0.00,,2013-04-01 22:53:00,
2013-04-01 18:03:00,27.0,-99.9,-100.00,NNW,338,5.0,15.0,-999,0.00,,,0.00,,2013-04-01 23:03:00,
2013-04-01 18:12:00,27.0,-99.9,-100.00,NNW,338,5.0,15.0,-999,0.00,,,0.00,,2013-04-01 23:12:00,
2013-04-01 18:23:00,27.0,-99.9,-100.00,NW,315,3.0,12.0,-999,0.00,,,0.00,,2013-04-01 23:23:00,
2013-04-01 18:32:00,27.0,-99.9,-100.00,NW,315,5.0,12.0,-999,0.00,,,0.00,,2013-04-01 23:32:00,
2013-04-01 18:43:00,27.0,-99.9,-100.00,NW,315,5.0,12.0,-999,0.00,,,0.00,,2013-04-01 23:43:00,
2013-04-01 18:53:00,27.0,-99.9,-100.00,NW,315,8.0,13.0,-999,0.00,,,0.00,,2013-04-01 23:53:00,
2013-04-01 19:03:00,26.0,-99.9,-100.00,NW,315,6.0,10.0,-999,0.00,,,0.00,,2013-04-02 00:03:00,
2013-04-01 19:12:00,26.0,-99.9,-100.00,NW,315,6.0,10.0,-999,0.00,,,0.00,,2013-04-02 00:12:00,
2013-04-01 19:23:00,25.0,-99.9,-100.00,NNW,338,2.0,16.0,-999,0.00,,,0.00,,2013-04-02 00:23:00,
2013-04-01 19:33:00,25.0,-99.9,-100.00,NW,315,5.0,9.0,-999,0.00,,,0.00,,2013-04-02 00:33:00,
2013-04-01 19:43:00,25.0,-99.9,-100.00,NW,315,5.0,9.0,-999,0.00,,,0.00,,2013-04-02 00:43:00,
2013-04-01 19:53:00,24.0,-99.9,-100.00,NW,315,1.0,7.0,-999,0.00,,,0.00,,2013-04-02 00:53:00,
2013-04-01 20:03:00,24.0,-99.9,-100.00,NW,315,1.0,6.0,-999,0.00,,,0.00,,2013-04-02 01:03:00,
2013-04-01 20:12:00,24.0,-99.9,-100.00,NW,315,1.0,6.0,-999,0.00,,,0.00,,2013-04-02 01:12:00,
2013-04-01 20:23:00,23.0,-99.9,-100.00,NW,315,1.0,3.0,-999,0.00,,,0.00,,2013-04-02 01:23:00,
2013-04-01 20:32:00,23.0,-99.9,-100.00,NW,315,2.0,6.0,-999,0.00,,,0.00,,2013-04-02 01:32:00,
2013-04-01 20:43:00,23.0,-99.9,-100.00,NW,315,2.0,6.0,-999,0.00,,,0.00,,2013-04-02 01:43:00,
2013-04-01 20:53:00,21.0,-99.9,-100.00,NW,315,1.0,3.0,-999,0.00,,,0.00,,2013-04-02 01:53:00,
2013-04-01 21:03:00,20.0,-99.9,-100.00,NW,315,0.0,1.0,-999,0.00,,,0.00,,2013-04-02 02:03:00,
2013-04-01 21:13:00,20.0,-99.9,-100.00,NW,315,0.0,1.0,-999,0.00,,,0.00,,2013-04-02 02:13:00,
2013-04-01 21:23:00,18.0,-99.9,-100.00,NW,315,0.0,2.0,-999,0.00,,,0.00,,2013-04-02 02:23:00,
2013-04-01 21:33:00,17.0,-99.9,-100.00,NW,315,1.0,2.0,-999,0.00,,,0.00,,2013-04-02 02:33:00,
2013-04-01 21:43:00,17.0,-99.9,-100.00,NW,315,1.0,2.0,-999,0.00,,,0.00,,2013-04-02 02:43:00,
2013-04-01 21:53:00,17.0,-99.9,-100.00,WNW,293,0.0,2.0,-999,0.00,,,0.00,,2013-04-02 02:53:00,
2013-04-01 22:03:00,16.0,-99.9,-100.00,WNW,293,0.0,2.0,-999,0.00,,,0.00,,2013-04-02 03:03:00,
2013-04-01 22:13:00,16.0,-99.9,-100.00,WNW,293,0.0,2.0,-999,0.00,,,0.00,,2013-04-02 03:13:00,
2013-04-01 22:22:00,15.0,-99.9,-100.00,WNW,293,0.0,2.0,-999,0.00,,,0.00,,2013-04-02 03:22:00,
2013-04-01 22:34:00,15.0,-99.9,-100.00,WNW,293,0.0,2.0,-999,0.00,,,0.00,,2013-04-02 03:34:00,
2013-04-01 22:44:00,15.0,-99.9,-100.00,WNW,293,0.0,2.0,-999,0.00,,,0.00,,2013-04-02 03:44:00,
2013-04-01 22:53:00,14.0,-99.9,-100.00,WNW,293,0.0,2.0,-999,0.00,,,0.00,,2013-04-02 03:53:00,
2013-04-01 23:03:00,14.0,-99.9,-100.00,WNW,293,0.0,2.0,-999,0.00,,,0.00,,2013-04-02 04:03:00,
2013-04-01 23:13:00,14.0,-99.9,-100.00,WNW,293,0.0,2.0,-999,0.00,,,0.00,,2013-04-02 04:13:00,
2013-04-01 23:23:00,15.0,-99.9,-100.00,WNW,293,1.0,5.0,-999,0.00,,,0.00,,2013-04-02 04:23:00,
2013-04-01 23:33:00,15.0,-99.9,-100.00,West,270,0.0,5.0,-999,0.00,,,0.00,,2013-04-02 04:33:00,
2013-04-01 23:43:00,15.0,-99.9,-100.00,West,270,0.0,5.0,-999,0.00,,,0.00,,2013-04-02 04:43:00,
2013-04-01 23:53:00,15.0,-99.9,-100.00,West,270,0.0,2.0,-999,0.00,,,0.00,,2013-04-02 04:53:00,